TimeMDT,TemperatureF,Dew PointF,Humidity,Sea Level PressureIn,VisibilityMPH,Wind Direction,Wind SpeedMPH,Gust SpeedMPH,PrecipitationIn,Events,Conditions,WindDirDegrees,DateUTC
12:35 AM,59.0,48.2,67,29.95,10.0,West,9.2,-,N/A,,Clear,270,2013-05-16 06:35:00
12:55 AM,59.0,48.2,67,29.94,10.0,West,11.5,-,N/A,,Clear,270,2013-05-16 06:55:00
1:15 AM,59.0,48.2,67,29.92,10.0,West,8.1,-,N/A,,Clear,280,2013-05-16 07:15:00
1:35 AM,57.2,48.2,72,29.91,10.0,WNW,10.4,-,N/A,,Partly Cloudy,290,2013-05-16 07:35:00
1:55 AM,55.4,46.4,72,29.91,10.0,NNW,6.9,-,N/A,,Partly Cloudy,330,2013-05-16 07:55:00
2:15 AM,55.4,46.4,72,29.91,10.0,WNW,9.2,-,N/A,,Clear,290,2013-05-16 08:15:00
2:35 AM,53.6,46.4,77,29.92,10.0,Calm,Calm,-,N/A,,Clear,0,2013-05-16 08:35:00
2:55 AM,55.4,46.4,72,29.92,10.0,WNW,3.5,-,N/A,,Clear,300,2013-05-16 08:55:00
3:15 AM,55.4,46.4,72,29.92,10.0,Calm,Calm,-,N/A,,Mostly Cloudy,0,2013-05-16 09:15:00
3:35 AM,53.6,46.4,77,29.92,10.0,East,4.6,-,N/A,,Scattered Clouds,80,2013-05-16 09:35:00
3:55 AM,51.8,44.6,76,29.91,10.0,East,5.8,-,N/A,,Partly Cloudy,90,2013-05-16 09:55:00
4:15 AM,53.6,46.4,77,29.92,10.0,Calm,Calm,-,N/A,,Partly Cloudy,0,2013-05-16 10:15:00
4:35 AM,51.8,44.6,76,29.91,10.0,Calm,Calm,-,N/A,,Partly Cloudy,0,2013-05-16 10:35:00
4:55 AM,51.8,44.6,76,29.90,10.0,Calm,Calm,-,N/A,,Clear,0,2013-05-16 10:55:00
5:15 AM,48.2,42.8,82,29.90,10.0,ENE,4.6,-,N/A,,Clear,60,2013-05-16 11:15:00
5:35 AM,48.2,42.8,82,29.90,10.0,SSW,5.8,-,N/A,,Clear,210,2013-05-16 11:35:00
5:55 AM,48.2,42.8,82,29.89,10.0,North,3.5,-,N/A,,Clear,360,2013-05-16 11:55:00
6:15 AM,48.2,42.8,82,29.90,6.0,Calm,Calm,-,N/A,,Partly Cloudy,0,2013-05-16 12:15:00
6:35 AM,51.8,46.4,82,29.91,8.0,Calm,Calm,-,N/A,,Partly Cloudy,0,2013-05-16 12:35:00
6:55 AM,51.8,46.4,82,29.92,7.0,North,3.5,-,N/A,,Partly Cloudy,350,2013-05-16 12:55:00
7:15 AM,57.2,48.2,72,29.91,9.0,South,4.6,-,N/A,,Scattered Clouds,190,2013-05-16 13:15:00
7:35 AM,57.2,48.2,72,29.91,10.0,SSW,5.8,-,N/A,,Partly Cloudy,200,2013-05-16 13:35:00
7:55 AM,60.8,50.0,68,29.90,10.0,South,10.4,-,N/A,,Scattered Clouds,190,2013-05-16 13:55:00
8:15 AM,59.0,50.0,72,29.92,10.0,West,4.6,-,N/A,,Scattered Clouds,280,2013-05-16 14:15:00
8:35 AM,60.8,50.0,68,29.92,10.0,West,3.5,-,N/A,,Scattered Clouds,270,2013-05-16 14:35:00
8:55 AM,60.8,50.0,68,29.92,10.0,West,3.5,-,N/A,,Scattered Clouds,280,2013-05-16 14:55:00
9:15 AM,60.8,48.2,63,29.92,10.0,Calm,Calm,-,N/A,,Clear,0,2013-05-16 15:15:00
9:35 AM,64.4,50.0,59,29.90,10.0,East,3.5,-,N/A,,Clear,90,2013-05-16 15:35:00
9:55 AM,64.4,51.8,64,29.90,10.0,Calm,Calm,-,N/A,,Partly Cloudy,0,2013-05-16 15:55:00
10:15 AM,66.2,51.8,60,29.90,10.0,ESE,3.5,-,N/A,,Partly Cloudy,110,2013-05-16 16:15:00
10:35 AM,69.8,50.0,49,29.90,10.0,Calm,Calm,-,N/A,,Clear,0,2013-05-16 16:35:00
10:55 AM,68.0,51.8,56,29.90,10.0,East,5.8,-,N/A,,Partly Cloudy,80,2013-05-16 16:55:00
11:15 AM,69.8,51.8,53,29.90,10.0,ESE,5.8,-,N/A,,Clear,110,2013-05-16 17:15:00
11:35 AM,73.4,53.6,50,29.89,10.0,SE,4.6,-,N/A,,Clear,130,2013-05-16 17:35:00
11:55 AM,73.4,53.6,50,29.89,10.0,SE,5.8,-,N/A,,Clear,140,2013-05-16 17:55:00
12:15 PM,75.2,53.6,47,29.88,10.0,ESE,9.2,-,N/A,,Partly Cloudy,120,2013-05-16 18:15:00
12:35 PM,75.2,53.6,47,29.87,10.0,SE,4.6,-,N/A,,Partly Cloudy,140,2013-05-16 18:35:00
1:15 PM,78.8,46.4,32,29.85,10.0,SE,9.2,-,N/A,,Clear,130,2013-05-16 19:15:00
1:35 PM,78.8,44.6,30,29.84,10.0,ESE,8.1,-,N/A,,Clear,120,2013-05-16 19:35:00
1:55 PM,80.6,42.8,26,29.83,10.0,SE,8.1,-,N/A,,Clear,130,2013-05-16 19:55:00
2:15 PM,80.6,42.8,26,29.83,10.0,SSE,8.1,-,N/A,,Clear,150,2013-05-16 20:15:00
2:35 PM,82.4,44.6,26,29.81,10.0,SSE,11.5,16.1,N/A,,Scattered Clouds,160,2013-05-16 20:35:00
2:55 PM,82.4,39.2,21,29.80,10.0,SSE,10.4,17.3,N/A,,Partly Cloudy,160,2013-05-16 20:55:00
3:15 PM,82.4,41.0,23,29.81,10.0,South,4.6,-,N/A,,Clear,190,2013-05-16 21:15:00
3:35 PM,80.6,39.2,23,29.80,10.0,WSW,5.8,-,N/A,,Partly Cloudy,240,2013-05-16 21:35:00
4:15 PM,82.4,39.2,21,29.80,10.0,South,10.4,-,N/A,,Mostly Cloudy,180,2013-05-16 22:15:00
4:35 PM,82.4,39.2,21,29.80,10.0,South,5.8,-,N/A,,Overcast,180,2013-05-16 22:35:00
4:55 PM,82.4,37.4,20,29.79,10.0,SW,20.7,26.5,N/A,,Overcast,220,2013-05-16 22:55:00
5:15 PM,80.6,37.4,21,29.80,10.0,SSW,16.1,24.2,N/A,,Scattered Clouds,200,2013-05-16 23:15:00
5:35 PM,80.6,37.4,21,29.80,10.0,South,11.5,-,N/A,,Scattered Clouds,190,2013-05-16 23:35:00
5:55 PM,80.6,37.4,21,29.79,10.0,SSE,6.9,-,N/A,,Partly Cloudy,160,2013-05-16 23:55:00
6:15 PM,80.6,37.4,21,29.79,10.0,South,8.1,-,N/A,,Clear,190,2013-05-17 00:15:00
6:35 PM,78.8,37.4,23,29.79,10.0,South,6.9,-,N/A,,Clear,190,2013-05-17 00:35:00
6:55 PM,75.2,39.2,27,29.80,10.0,SSW,5.8,-,N/A,,Clear,200,2013-05-17 00:55:00
7:35 PM,75.2,35.6,24,29.81,10.0,WSW,6.9,-,N/A,,Scattered Clouds,240,2013-05-17 01:35:00
7:55 PM,75.2,35.6,24,29.82,10.0,NW,10.4,-,N/A,,Scattered Clouds,310,2013-05-17 01:55:00
8:15 PM,75.2,33.8,22,29.83,10.0,NW,15.0,28.8,N/A,,Mostly Cloudy,320,2013-05-17 02:15:00
8:35 PM,75.2,32.0,21,29.84,10.0,NW,17.3,27.6,N/A,,Overcast,310,2013-05-17 02:35:00
8:55 PM,73.4,37.4,27,29.85,10.0,North,11.5,25.3,N/A,,Overcast,350,2013-05-17 02:55:00
9:35 PM,68.0,44.6,43,29.86,10.0,ESE,10.4,-,N/A,,Partly Cloudy,110,2013-05-17 03:35:00
9:55 PM,66.2,44.6,46,29.87,10.0,ESE,8.1,-,N/A,,Scattered Clouds,120,2013-05-17 03:55:00
10:15 PM,68.0,44.6,43,29.89,10.0,SE,9.2,-,N/A,,Mostly Cloudy,130,2013-05-17 04:15:00
10:35 PM,69.8,42.8,38,29.87,10.0,ESE,10.4,-,N/A,,Mostly Cloudy,120,2013-05-17 04:35:00
10:55 PM,69.8,42.8,38,29.87,10.0,South,12.7,-,N/A,,Mostly Cloudy,180,2013-05-17 04:55:00
11:15 PM,71.6,39.2,31,29.87,10.0,SSE,16.1,19.6,N/A,,Partly Cloudy,160,2013-05-17 05:15:00
11:35 PM,71.6,37.4,29,29.87,10.0,SSE,13.8,-,N/A,,Partly Cloudy,150,2013-05-17 05:35:00
11:55 PM,66.2,44.6,46,29.87,10.0,SE,17.3,23.0,N/A,,Partly Cloudy,140,2013-05-17 05:55:00